www.pogodaiklimat.ru

Погода и климат >> Архив погоды >> Венгрия >> Veszprem


ПОГОДА в Veszprem

  • Прогноз погоды в Veszprem
  • Монитор погоды в Veszprem
  • Климат города

АРХИВ ПОГОДЫ в Veszprem

Время (UTC), дата Ветер
(напр.,м/с)
 
Видим.   Явления Облачность Т
(С)
Тd
(С)
f
(%)
Тe
(С)
Тes
(С)
Комфортность P
(гПа)
Po
(гПа)
Тmin
(С)
Tmax
(С)
R
(мм)
R24
(мм)
S
(см)
07 11.08 СЗ 3 н/о н/о +17.6 +17.3 98 +18 +18 1021.9 988.6
08 11.08 С 3 н/о н/о +17.5 +17.2 98 +17 +17 1021.5 988.2
09 11.08 СЗ 4 н/о н/о +19.6 +18.4 93 +22 +22 комфорт 1021.2 988.2
11 11.08 СЗ 1 н/о н/о +22.6 +19.0 80 +28 +28 душно 1021.1 988.4
10 11.08 СЗ 3 н/о н/о +21.0 +18.8 87 +26 +26 душно 1021.2 988.3
12 11.08 С 3 н/о н/о +22.6 +18.2 76 +28 +28 душно 1021.1 988.4 3
13 11.08 С 3 н/о н/о +22.5 +18.1 76 +28 +28 душно 1021.0 988.3
14 11.08 С 2 н/о н/о +23.4 +18.5 74 +30 +30 очень
душно
1020.5 987.9
15 11.08 С 2 н/о н/о +23.5 +18.2 72 +28 +28 душно 1020.0 987.5
17 11.08 С 2 н/о н/о +23.4 +17.8 71 +29 +29 душно 1019.6 987.1
16 11.08 С 2 н/о н/о +23.2 +18.3 74 +29 +29 душно 1019.9 987.3
18 11.08 С 1 н/о н/о +21.4 +17.6 79 +26 +26 душно 1020.2 987.4 +24.1 3
19 11.08 штиль 0 н/о н/о +20.3 +17.3 83 +23 +23 комфорт 1020.6 987.7
20 11.08 С 1 н/о н/о +19.3 +17.3 88 +22 +22 комфорт 1021.0 988.0
21 11.08 СЗ 1 н/о н/о +18.6 +16.2 86 +21 +21 комфорт 1021.1 988.0
23 11.08 С 1 н/о н/о +18.6 +14.9 79 +20 +20 1021.0 987.9
22 11.08 СЗ 1 н/о н/о +18.4 +15.3 82 +20 +20 1021.2 988.1
00 12.08 С 2 н/о н/о +19.3 +14.3 73 +21 +21 комфорт 1020.9 987.9
01 12.08 С 2 н/о н/о +18.8 +14.5 76 +20 +20 1021.0 987.9
02 12.08 С 2 н/о н/о +18.2 +13.9 76 +19 +19 1020.8 987.6
03 12.08 С 2 н/о н/о +18.1 +12.5 70 +19 +19 1020.8 987.6
05 12.08 СЗ 1 н/о н/о +16.7 +12.5 76 +18 +18 1021.1 987.8
04 12.08 штиль 0 н/о н/о +16.9 +11.6 71 +17 +17 1020.9 987.6
06 12.08 СЗ 2 н/о н/о +19.4 +13.3 68 +21 +21 комфорт 1021.0 988.0 +16.0
07 12.08 С 2 н/о н/о +21.1 +12.8 59 +23 +23 комфорт 1020.6 987.8
08 12.08 С 2 н/о н/о +22.9 +12.5 52 +26 +26 жарко 1020.5 987.9
09 12.08 СЗ 1 н/о н/о +24.9 +11.5 43 +26 +26 жарко 1020.4 988.0
11 12.08 С 2 н/о н/о +26.1 +9.5 35 +27 +27 жарко 1019.8 987.5
10 12.08 н/о н/о +25.2 +9.5 37 1020.1 987.7
12 12.08 ЮЗ 2 н/о н/о +26.6 +9.0 33 +27 +27 жарко 1019.3 987.1
13 12.08 З 2 н/о н/о +27.1 +9.9 34 +28 +28 жарко 1018.6 986.5
14 12.08 Ю 4
{7}
н/о н/о +26.9 +10.2 35 +27 +27 жарко 1018.1 986.0
15 12.08 ЮВ 2 н/о н/о +27.4 +10.6 35 +28 +28 жарко 1017.3 985.3
17 12.08 ЮВ 1 н/о н/о +26.7 +11.2 38 +28 +28 жарко 1016.2 984.1
16 12.08 Ю 3 н/о н/о +27.1 +9.5 33 +27 +27 жарко 1016.8 984.7
18 12.08 штиль 0 н/о н/о +24.5 +12.5 47 +26 +26 жарко 1015.8 983.5 +27.6
19 12.08 штиль 0 н/о н/о +21.2 +14.1 64 +24 +24 комфорт 1016.3 983.6
20 12.08 штиль 0 н/о н/о +20.3 +12.8 62 +22 +22 комфорт 1016.4 983.6
21 12.08 штиль 0 н/о н/о +20.2 +14.6 70 +22 +22 комфорт 1016.3 983.5
23 12.08 штиль 0 н/о н/о +17.8 +15.1 84 +18 +18 1016.1 983.1
22 12.08 штиль 0 н/о н/о +18.3 +14.6 79 +19 +19 1016.4 983.4
00 13.08 штиль 0 н/о н/о +17.9 +14.6 81 +18 +18 1015.8 982.8
01 13.08 штиль 0 н/о н/о +18.2 +15.3 83 +18 +18 1015.3 982.3
02 13.08 штиль 0 н/о н/о +17.8 +14.5 81 +18 +18 1015.0 982.0
03 13.08 штиль 0 н/о н/о +17.0 +15.0 88 +17 +17 1014.9 981.8
05 13.08 штиль 0 н/о н/о +17.4 +15.6 89 +17 +17 1014.3 981.3
04 13.08 штиль 0 н/о н/о +17.4 +15.4 88 +17 +17 1014.5 981.5
06 13.08 штиль 0 н/о н/о +19.6 +16.4 82 +22 +22 комфорт 1014.1 981.3 +16.7
07 13.08 Ю 1 н/о н/о +23.0 +17.7 72 +28 +28 душно 1013.6 981.2
08 13.08 Ю 3 н/о н/о +25.2 +18.4 66 +30 +30 душно 1013.5 981.3
09 13.08 ЮВ 2 н/о н/о +26.2 +19.1 65 +31 +31 очень
душно
1013.1 981.1
11 13.08 Ю 3
{7}
н/о н/о +27.8 +17.9 55 +32 +32 душно 1012.7 980.8
10 13.08 Ю 3 н/о н/о +27.1 +18.7 60 +32 +32 очень
душно
1012.9 981.0
12 13.08 Ю 4
{7}
н/о н/о +28.5 +17.4 51 +33 +33 очень
душно
1012.0 980.2
13 13.08 Ю 4
{7}
н/о н/о +28.9 +17.4 50 +33 +33 очень
душно
1011.5 979.8
14 13.08 Ю 4
{7}
н/о н/о +29.3 +16.8 47 +33 +33 душно 1010.7 979.1
15 13.08 Ю 4
{7}
н/о н/о +29.4 +16.6 46 +33 +33 душно 1010.1 978.5
17 13.08 ЮВ 2 н/о н/о +28.4 +17.0 50 +32 +32 душно 1009.0 977.3
16 13.08 Ю 4 н/о н/о +29.3 +16.5 46 +33 +33 душно 1009.6 978.0
18 13.08 Ю 2 н/о н/о +26.5 +17.0 56 +30 +30 душно 1009.1 977.2 +29.9
19 13.08 Ю 1 н/о н/о +24.1 +18.1 69 +28 +28 душно 1009.5 977.4
20 13.08 Ю 2 н/о н/о +23.0 +18.1 74 +29 +29 очень
душно
1009.9 977.6
21 13.08 штиль 0 н/о н/о +21.3 +17.9 81 +25 +25 комфорт 1009.9 977.4
23 13.08 Ю 2 н/о н/о +23.0 +17.5 71 +28 +28 душно 1010.0 977.7
22 13.08 Ю 2 н/о н/о +23.5 +17.5 69 +27 +27 душно 1009.8 977.6
00 14.08 штиль 0 н/о н/о +20.5 +16.7 79 +23 +23 комфорт 1010.3 977.7
01 14.08 штиль 0 н/о н/о +20.0 +17.2 84 +23 +23 комфорт 1010.1 977.5
02 14.08 ЮЗ 2 н/о н/о +20.1 +17.3 84 +24 +24 комфорт 1010.3 977.7
03 14.08 ЮЗ 3 н/о н/о +20.0 +17.4 85 +23 +23 комфорт 1010.5 977.9
05 14.08 СЗ 2 н/о н/о +18.7 +17.0 90 +20 +20 1011.0 978.2
04 14.08 СЗ 1 н/о н/о +18.6 +16.9 90 +21 +21 комфорт 1010.7 977.9
06 14.08 С 3 н/о н/о +20.7 +17.3 81 +25 +25 комфорт 1011.1 978.5 +18.0
07 14.08 С 3 н/о н/о +22.1 +16.8 72 +26 +26 душно 1011.4 979.0
08 14.08 С 2 н/о н/о +23.4 +17.4 69 +29 +29 душно 1011.7 979.4
09 14.08 С 3 н/о н/о +24.3 +17.5 66 +28 +28 душно 1011.8 979.6
11 14.08 С 2 н/о н/о +25.5 +17.4 61 +30 +30 душно 1011.5 979.4
10 14.08 С 3 н/о н/о +24.9 +17.6 64 +29 +29 душно 1011.7 979.6
12 14.08 С 3 н/о н/о +26.8 +18.1 59 +31 +31 душно 1011.0 979.1
13 14.08 СЗ 3 н/о н/о +26.1 +17.2 58 +30 +30 душно 1010.9 978.9
14 14.08 С 3 н/о н/о +25.7 +17.4 60 +30 +30 душно 1010.3 978.3
15 14.08 ЮЗ 7 н/о н/о +16.9 +16.3 96 +16 +16 1013.3 980.2
17 14.08 С 3 н/о н/о +18.5 +18.0 97 +20 +20 1012.3 979.5
16 14.08 С 4
{8}
н/о н/о +18.1 +17.5 96 +18 +18 1012.2 979.3
18 14.08 СЗ 2 н/о н/о +18.5 +17.0 91 +20 +20 1013.1 980.2 +27.2 33
19 14.08 С 3 н/о н/о +18.2 +16.2 88 +19 +19 1012.9 980.0
20 14.08 СЗ 5
{8}
н/о н/о +18.7 +15.9 84 +19 +19 1012.9 980.1
21 14.08 СЗ 3 н/о н/о +18.3 +15.9 86 +19 +19 1013.3 980.4
23 14.08 З 3
{7}
н/о н/о +19.9 +16.5 81 +23 +23 комфорт 1014.3 981.5
22 14.08 СЗ 3
{7}
н/о н/о +20.1 +16.5 80 +23 +23 комфорт 1013.3 980.6
00 15.08 СЗ 4
{7}
н/о н/о +19.2 +16.8 86 +21 +21 комфорт 1014.5 981.7
01 15.08 СЗ 5
{8}
н/о н/о +19.0 +16.0 83 +20 +20 1014.2 981.3
02 15.08 СЗ 5
{8}
н/о н/о +19.5 +15.2 76 +21 +21 комфорт 1014.2 981.4
03 15.08 СЗ 5 н/о н/о +20.1 +14.2 69 +22 +22 комфорт 1014.1 981.4
05 15.08 СЗ 6
{10}
н/о н/о +19.2 +13.6 70 +20 +20 1015.0 982.1
04 15.08 С 4
{9}
н/о н/о +19.8 +13.5 67 +22 +22 комфорт 1014.4 981.6
06 15.08 С 5
{15}
н/о н/о +19.5 +13.2 67 +21 +21 комфорт 1015.1 982.3 +17.9
07 15.08 С 5
{9}
н/о н/о +19.8 +13.7 68 +21 +21 комфорт 1015.9 983.1
08 15.08 С 4
{8}
н/о н/о +20.1 +14.2 69 +22 +22 комфорт 1016.1 983.3
09 15.08 С 4
{9}
н/о н/о +21.6 +15.7 69 +25 +25 комфорт 1016.5 983.9
11 15.08 С 5
{9}
н/о н/о +24.2 +16.7 63 +28 +28 душно 1016.5 984.1
10 15.08 С 4
{8}
н/о н/о +22.6 +16.2 67 +27 +27 душно 1016.6 984.1
12 15.08 С 5
{10}
н/о н/о +24.6 +15.8 58 +28 +28 душно 1016.3 984.0
13 15.08 СЗ 6
{11}
н/о н/о +25.3 +15.6 55 +28 +28 жарко 1016.1 983.9
14 15.08 С 6
{10}
н/о н/о +25.2 +14.0 50 +28 +28 жарко 1016.1 983.9
15 15.08 С 5
{9}
н/о н/о +25.4 +13.6 48 +28 +28 жарко 1016.0 983.8
17 15.08 С 3
{7}
н/о н/о +24.6 +12.9 48 +27 +27 жарко 1016.0 983.7
16 15.08 С 4
{7}
н/о н/о +25.2 +13.4 48 +27 +27 жарко 1015.8 983.6
18 15.08 С 2 н/о н/о +23.3 +12.0 49 +26 +26 жарко 1016.2 983.8 +26.0
19 15.08 С 2 н/о н/о +21.6 +11.6 53 +24 +24 комфорт 1017.1 984.4
20 15.08 СЗ 2 н/о н/о +20.4 +12.1 59 +23 +23 комфорт 1017.5 984.7
21 15.08 С 2 н/о н/о +20.6 +11.5 56 +23 +23 комфорт 1017.8 985.0
23 15.08 С 1 н/о н/о +18.3 +13.0 71 +20 +20 1018.4 985.3
22 15.08 С 2 н/о н/о +19.6 +12.6 64 +22 +22 комфорт 1018.0 985.1
00 16.08 СЗ 1 н/о н/о +16.6 +13.1 80 +17 +17 1018.4 985.1
01 16.08 С 1 н/о н/о +16.9 +13.6 81 +18 +18 1018.1 984.9
02 16.08 СЗ 1 н/о н/о +16.6 +14.1 85 +17 +17 1018.1 984.9
03 16.08 С 2 н/о н/о +17.3 +14.6 84 +18 +18 1018.2 985.0
05 16.08 СЗ 1 н/о н/о +17.4 +14.7 84 +18 +18 1018.6 985.4
04 16.08 С 1 н/о н/о +17.1 +14.4 84 +18 +18 1018.3 985.1
06 16.08 С 2 н/о н/о +19.2 +15.7 80 +21 +21 комфорт 1018.4 985.4 +16.2
07 16.08 С 1 н/о н/о +21.6 +16.1 71 +25 +25 комфорт 1018.1 985.4
08 16.08 СВ 1 н/о н/о +23.4 +15.5 61 +28 +28 душно 1018.1 985.6
09 16.08 С 1 н/о н/о +24.0 +15.0 57 +27 +27 жарко 1018.1 985.7
11 16.08 СЗ 3 н/о н/о +25.2 +12.8 46 +27 +27 жарко 1017.3 985.0
10 16.08 С 3 н/о н/о +24.5 +13.4 50 +27 +27 жарко 1017.9 985.5
12 16.08 СЗ 3 н/о н/о +25.9 +12.4 43 +27 +27 жарко 1017.0 984.8
13 16.08 СЗ 2 н/о н/о +26.2 +12.6 43 +28 +28 жарко 1016.7 984.5
14 16.08 СВ 1 н/о н/о +26.6 +12.3 41 +28 +28 жарко 1016.0 983.9
15 16.08 С 1 н/о н/о +26.6 +12.6 42 +28 +28 жарко 1015.8 983.7
17 16.08 штиль 0 н/о н/о +25.7 +13.2 46 +28 +28 жарко 1015.6 983.4
16 16.08 В 1 н/о н/о +26.6 +12.3 41 +28 +28 жарко 1015.6 983.5
18 16.08 штиль 0 н/о н/о +23.5 +14.2 56 +26 +26 жарко 1015.8 983.4 +27.1
19 16.08 штиль 0 н/о н/о +21.2 +13.4 61 +24 +24 комфорт 1016.3 983.6
20 16.08 штиль 0 н/о н/о +19.0 +14.3 74 +20 +20 1016.6 983.7
21 16.08 штиль 0 н/о н/о +19.2 +14.0 72 +20 +20 1016.7 983.8
23 16.08 штиль 0 н/о н/о +17.2 +12.9 76 +17 +17 1016.9 983.8
22 16.08 С 1 н/о н/о +18.9 +13.7 72 +21 +21 комфорт 1016.6 983.7
00 17.08 штиль 0 н/о н/о +18.5 +11.6 64 +19 +19 1016.7 983.7
01 17.08 штиль 0 н/о н/о +16.5 +11.9 74 +16 +16 1016.8 983.6
02 17.08 штиль 0 н/о н/о +16.7 +11.8 73 +17 +17 1016.8 983.6
03 17.08 С 1 н/о н/о +16.9 +12.4 75 +18 +18 1016.5 983.3
05 17.08 штиль 0 н/о н/о +16.3 +12.7 79 +16 +16 1017.0 983.8
04 17.08 С 1 н/о н/о +16.4 +12.4 77 +17 +17 1016.7 983.5
06 17.08 штиль 0 н/о н/о +18.5 +15.2 81 +19 +19 1017.0 984.0 +15.8
07 17.08 В 1 н/о н/о +21.3 +16.5 74 +25 +25 комфорт 1016.8 984.1
08 17.08 В 1 н/о н/о +22.9 +17.4 71 +28 +28 душно 1016.6 984.1
09 17.08 ЮВ 1 н/о н/о +24.5 +17.7 66 +29 +29 душно 1016.6 984.3
11 17.08 Ю 2 н/о н/о +26.5 +16.1 53 +30 +30 душно 1016.0 983.9
10 17.08 ЮВ 2 н/о н/о +25.5 +17.4 61 +30 +30 душно 1016.5 984.3
12 17.08 ЮВ 2 н/о н/о +27.1 +13.5 43 +29 +29 жарко 1015.7 983.7
13 17.08 Ю 2 н/о н/о +27.4 +12.6 40 +29 +29 жарко 1015.3 983.3
14 17.08 Ю 1 н/о н/о +27.7 +12.5 39 +29 +29 жарко 1014.9 983.0
15 17.08 Ю 2 н/о н/о +27.8 +12.6 39 +29 +29 жарко 1014.6 982.7
17 17.08 Ю 1 н/о н/о +27.3 +14.0 44 +29 +29 жарко 1014.4 982.4
16 17.08 Ю 2 н/о н/о +27.5 +13.5 42 +29 +29 жарко 1014.7 982.7
18 17.08 СЗ 1 н/о н/о +24.8 +15.7 57 +28 +28 жарко 1014.9 982.7 +28.3
19 17.08 штиль 0 н/о н/о +22.3 +16.3 69 +27 +27 душно 1015.7 983.2
20 17.08 штиль 0 н/о н/о +20.8 +16.6 77 +24 +24 комфорт 1016.2 983.5
21 17.08 СЗ 1 н/о н/о +21.0 +17.4 80 +26 +26 душно 1016.4 983.7
23 17.08 С 1 н/о н/о +20.6 +15.8 74 +25 +25 комфорт 1016.7 983.9
22 17.08 С 1 н/о н/о +20.6 +16.0 75 +25 +25 комфорт 1016.7 983.9
00 18.08 С 1 н/о н/о +20.4 +15.6 74 +24 +24 комфорт 1016.8 984.0
01 18.08 штиль 0 н/о н/о +20.2 +15.2 73 +22 +22 комфорт 1016.9 984.1
02 18.08 штиль 0 н/о н/о +19.7 +15.4 76 +22 +22 комфорт 1017.2 984.3
03 18.08 штиль 0 н/о н/о +19.0 +14.5 75 +20 +20 1017.4 984.4
05 18.08 С 1 н/о н/о +20.2 +15.0 72 +24 +24 комфорт 1017.8 985.0
04 18.08 С 1 н/о н/о +19.0 +14.9 77 +21 +21 комфорт 1017.7 984.7

 

Местоположение метеостанции Veszprem (Венгрия): широта 47.07 долгота 17.83 высота над уровнем моря 281 м.

В архиве по умолчанию представлена погода в Veszprem за последнюю неделю. Архивные данные за месяц целиком и за предыдущие месяцы, начиная с января 2011 года, Вы можете получить, выбрав интересующий диапазон дат из раскрывающегося списка и нажав кнопку "Ввод!".


*Определитесь, кто Вы:
робот инопланетянин человек

Внимание! Время в таблицах - всемирное. Для получения местного времени необходимо прибавить поправку, которая в Veszprem равна 1 ч.

Смотрите также архив погоды в соседних городах и на ближайших метеорологических станциях:

Погода в Siofok (Венгрия) (24 км)
Погода в Agard (Венгрия) (61 км)
Погода в Sarmellek (Венгрия) (66 км)
Погода в Gyor (Венгрия) (73 км)
Погода в Tata (Венгрия) (74 км)
Погода в Kaposvar (Венгрия) (77 км)
Погода в Zalaegerszeg (Венгрия) (81 км)
Погода в Hurbanovo (Словакия) (93 км)
Погода в Szombathely (Венгрия) (93 км)
Погода в Paks (Венгрия) (95 км)

Пояснения к столбцам:

Ветер - указаны скорость ветра в м/с - средняя за 10 мин, порывы в срок и между сроками (в фигурных скобках) и направление, откуда дует ветер: С - северный, СВ - северо-восточный, В - восточный, ЮВ - юго-восточный, Ю - южный, ЮЗ - юго-западный, З - западный, СЗ - северо-западный.
Видимость - горизонтальная дальность видимости в метрах или километрах. При видимости от 1 до 10 км при отсутствии осадков обычно наблюдается дымка, при ухудшении видимости до 1 км и менее - туман. В сухую погоду видимость может ухудшаться дымом, пылью или мглою.
Явления - указаны атмосферные явления, наблюдавшиеся в срок или в последний час перед сроком; фигурными скобками обозначены явления, наблюдавшиеся между сроками (за 1-3 часа до срока); квадратными скобками обозначены град или гололедные отложения с указанием их диаметра в мм.
Облачность - указаны через наклонную черту общая и нижняя облачность в баллах и высота нижней границы облаков в метрах; квадратными скобками обозначены формы облаков: Ci - перистые, Cs - перисто-слоистые, Cc - перисто-кучевые, Ac - высококучевые, As - высокослоистые, Sc - слоисто-кучевые, Ns - слоисто-дождевые, Cu - кучевые, Cb - кучево-дождевые. Подробнее классификацию облаков см. в Атласе облаков (PDF).
T - Температура воздуха - температура, измеренная на высоте 2 м над землей.
Td - Температура точки росы - температура, при понижении до которой содержащийся в воздухе водяной пар достигнет насыщения.
f - Относительная влажность воздуха - влажноcть воздуха, измеренная на высоте 2 м над землей.
Te - Эффективная температура - температура, которую ощущает одетый по сезону человек в тени. Характеристика душности погоды. При расчете учитывается влияние влажности воздуха и скорости ветра на теплоощущения человека.
Tes - Эффективная температура на солнце - температура, которую ощущает человек, с поправкой на солнечный нагрев. Характеристика знойности погоды. Зависит от высоты солнца над горизонтом, облачности и скорости ветра. Ночью, в пасмурную погоду, а также при ветре 12 м/с и более поправка равна нулю.
P - Атмосферное давление - приведенное к уровню моря атмосферное давление.
Po - Атмосферное давление - измеренное на уровне метеостанции атмосферное давление.
Tmin - Минимальная температура - минимум температуры воздуха на высоте 2 м над землей.
Tmax - Максимальная температура - максимум температуры воздуха на высоте 2 м над землей.
R - Количество осадков - Количество выпавших осадков за период времени, мм. При наведении курсора мыши на число - период времени, за который выпало указанное количество осадков.
R24 - Количество осадков - Количество выпавших осадков за 24 часа, мм.
S - Снежный покров - Высота снежного покрова, см. При наведении курсора мыши на число - состояние снежного покрова и степень покрытия местности в баллах.